Location: Mason Neck State Park
(38.6428°N, 77.1981°W)
Time: 22:10:41
(UTC-04:00)

Daily predictions for brighter satellites

Satellite Brightness Start Highest point End
(mag) Time Altitude Azimuth Time Altitude Azimuth Time Altitude Azimuth
Cosmos 1624 Rocket 4.1 20:57:43 10° NNW 21:03:06 89° E 21:08:24 10° SSE
Cosmos 158 Rocket 4.3 21:00:23 10° S 21:05:28 46° ESE 21:10:28 10° NNE
Cosmos 1607 4.3 21:01:12 10° NNW 21:07:29 55° NE 21:13:36 10° SE
H-2A R/B 3.4 21:03:29 10° ESE 21:07:40 25° ENE 21:11:55 10° NNE
Cosmos 1626 Rocket 3.7 21:07:43 10° S 21:12:11 88° W 21:16:40 10° N
Resurs 1-3 3.7 21:08:41 10° SSE 21:13:04 84° WSW 21:17:29 10° NNW
Cosmos 1470 2.7 21:10:39 10° N 21:14:32 71° E 21:18:25 10° SSE
ERS-2 2.1 21:11:28 10° SSE 21:15:07 76° ENE 21:18:48 10° N
ARGOS 4.0 21:10:47 10° SE 21:15:41 36° ENE 21:20:35 10° N
NOAA 11 4.2 21:12:24 10° SSE 21:17:49 83° ENE 21:23:16 10° NNW
OAO 3 Rocket 3.8 21:17:16 10° SW 21:21:53 39° SSE 21:26:27 10° E
Meteor 2-5 Rocket 4.3 21:16:36 10° SSE 21:22:08 42° E 21:27:42 10° NNE
Cosmos 1844 Rocket 4.0 21:18:58 10° SE 21:22:58 20° E 21:26:57 10° NE
Thor Agena Rocket 4.1 21:18:25 10° N 21:23:29 62° WNW 21:28:27 10° SSW
Cosmos 1602 Rocket 3.9 21:21:23 10° SSW 21:25:50 71° W 21:30:19 10° N
NOSS 2-3 (D) 3.8 21:21:53 10° SSW 21:26:23 87° WNW 21:31:33 10° NNE
Cosmos 1939 Rocket 4.4 21:25:31 10° SSW 21:29:18 35° W 21:33:03 10° NNW
Cosmos 1812 Rocket 3.5 21:25:24 10° N 21:29:46 78° E 21:34:07 10° S
Resurs 01 Rocket 2.3 21:26:46 10° S 21:31:05 56° W 21:35:26 10° NNW
SL-08 RB Rocket 4.5 21:31:55 12° SE 21:35:47 39° ENE 21:40:07 10° N
Cosmos 1953 Rocket 4.3 21:32:47 11° SSE 21:36:30 33° E 21:40:26 10° NNE
Cosmos 1758 Rocket 3.9 21:37:57 10° SSE 21:42:15 49° E 21:46:32 10° NNE
Terra 3.9 21:48:32 10° E 21:50:52 14° ENE 21:53:12 10° NNE
Helios 1A 4.5 21:50:13 15° ESE 21:52:22 22° ENE 21:55:39 10° NNE
Cosmos 2263 Rocket 3.4 21:47:29 10° SW 21:52:55 45° WNW 21:58:21 10° N
BREEZE-M R/B 3.1 21:52:10 10° WNW 21:54:59 32° SW 21:56:05 21° S
ATLAS 2AS CENTAUR R/B 3.2 21:48:16 10° S 21:55:36 51° ESE 22:03:20 10° NE
Meteor 1-16 Rocket 4.2 21:53:33 10° N 21:59:07 87° WSW 22:04:18 13° S
Cosmos 1315 Rocket 2.7 21:56:44 10° S 22:00:44 79° E 22:04:49 10° NNE
Cosmos 2285 Rocket 4.0 21:55:45 10° S 22:02:00 66° ESE 22:08:15 10° NNE
GENESIS II 4.1 21:58:26 10° SSW 22:02:15 62° ESE 22:06:07 10° NE
Cosmos 1953 4.5 22:00:13 10° NW 22:03:27 24° W 22:06:40 10° SW
Cosmos 1825 Rocket 3.9 22:04:08 10° SSW 22:08:34 69° W 22:13:02 10° N
ERS-1 Rocket 3.0 22:06:48 21° SSE 22:10:07 67° ENE 22:15:08 10° N
CSL-04 DEB 4.4 22:09:59 27° SE 22:11:55 59° ENE 22:15:48 10° N
Helios 1B rocket 3.5 22:08:42 10° NE 22:12:09 26° E 22:12:48 25° ESE
In-Cosmos 22 4.1 22:07:01 10° S 22:12:30 89° E 22:18:10 10° N
CZ-2C R/B 4.4 22:09:40 10° ENE 22:12:31 14° E 22:13:04 14° E
OAO 3 Copernicus 4.5 22:07:40 10° W 22:12:36 53° S 22:15:21 25° ESE
SPOT 5 3.5 22:10:48 23° SE 22:13:31 45° ENE 22:18:27 10° N
Cosmos 1048 Rocket 4.2 22:09:29 10° SSW 22:14:46 76° WNW 22:20:08 10° NNE
Iridium 4 Rocket 4.1 22:10:04 10° S 22:15:48 65° W 22:21:12 10° N
Cosmos 1340 4.3 22:15:22 10° NNE 22:18:15 20° ENE 22:18:53 20° E
Iridium 18 4.4 22:21:37 45° SE 22:22:09 53° E 22:25:34 10° N
Lacrosse 5 2.0 22:17:15 10° SW 22:22:18 79° NW 22:27:23 10° NE
S3M 4.4 22:19:53 24° SSE 22:23:21 45° E 22:29:23 10° NNE
Cosmos 921 Rocket 3.7 22:19:09 10° N 22:23:25 41° ENE 22:25:03 29° ESE
Meteor 1-29 4.5 22:22:24 10° NE 22:24:34 21° E 22:24:34 21° E
Cosmos 1238 Rocket 2.7 22:23:37 23° SSW 22:25:13 54° W 22:28:07 10° N
Cosmos 1674 2.6 22:25:59 37° SSE 22:27:17 63° E 22:31:05 10° NNE
Aureole 1 Rocket 4.3 22:26:29 10° SW 22:29:15 30° WNW 22:32:27 10° N
NOSS 3-4 (A) 4.5 22:32:55 24° ESE 22:33:08 24° ESE 22:38:01 10° ENE
NOSS 3-4 (C) 4.5 22:33:05 24° ESE 22:33:14 24° ESE 22:38:05 10° ENE
CARTOSAT-1 4.2 22:36:10 34° ESE 22:37:20 41° ENE 22:41:24 10° N
Cosmos 2278 Rocket 3.1 22:38:39 27° ESE 22:39:11 28° ESE 22:43:56 10° NE
SL-14 R/B 4.3 22:44:17 29° E 22:44:17 29° E 22:47:24 10° NNE
Cosmos 1346 Rocket 3.1 22:41:16 10° NNW 22:45:13 63° W 22:46:37 37° SSW
SPOT 1/Viking Rocket 3.5 22:43:54 34° SSE 22:46:11 90° N 22:51:22 10° NNW
COSMOS 2406 3.7 22:40:42 10° NNW 22:46:19 50° ENE 22:48:35 32° ESE
BREEZE-M DEB (TANK) 4.2 22:37:57 10° WSW 22:46:34 48° NW 22:49:37 10° NE
H-2A R/B 3.1 22:43:05 17° SSW 22:46:47 40° W 22:51:49 10° NNW
Cosmos 1553 Rocket 3.8 22:44:41 25° S 22:48:24 84° E 22:54:29 10° N
Cosmos 724 4.3 22:48:17 10° NNW 22:54:20 78° ENE 22:56:49 38° SE
Cosmos 220 Rocket 4.1 22:54:37 51° ESE 22:54:46 51° ESE 22:58:52 10° NNE
Cosmos 1461 4.5 22:57:59 25° E 22:57:59 25° E 23:00:48 10° NE
Cosmos 1110 Rocket 3.9 22:52:14 10° NNW 22:57:26 85° ENE 22:59:03 45° SSE
Cosmos 1726 1.9 22:54:17 10° N 22:58:03 87° E 22:58:22 74° SSE
Cosmos 1844 3.8 22:54:48 15° SSW 22:59:37 79° WNW 23:05:24 10° NNE
SL-8 R/B 3.7 22:56:15 10° WSW 23:01:05 80° NNW 23:05:56 10° NE
KORONAS-FOTON 4.2 23:01:18 41° SW 23:02:23 59° W 23:06:16 10° N
Cosmos-2242 4.2 22:59:57 10° NNW 23:04:00 37° W 23:05:52 25° SW
Meteor 2-10 4.0 22:58:55 10° N 23:04:20 86° E 23:06:10 44° SSE
Cosmos 1842 Rocket 3.4 23:00:40 10° N 23:05:00 75° E 23:05:36 63° SE
OAO 3 Rocket 3.2 23:00:18 10° WSW 23:05:08 57° S 23:05:27 56° SSE
IGS 5A 3.3 23:05:00 65° S 23:05:37 89° W 23:09:46 10° NNW
Cosmos 1844 Rocket 3.4 23:00:52 10° SW 23:06:23 52° WNW 23:11:55 10° NNE
APEX 4.3 23:03:44 10° N 23:06:06 28° NE 23:06:06 28° NE
Landsat 7 4.0 23:07:17 43° SSW 23:08:42 64° WSW 23:13:26 10° NNW
Cosmos 1331 Rocket 4.0 23:08:36 10° NNW 23:13:48 77° WSW 23:15:07 51° S
Cosmos 1386 Rocket 4.3 23:11:21 10° N 23:17:29 82° E 23:19:21 47° SSE
Cosmos 2084 3.7 23:15:30 10° NW 23:19:00 50° WSW 23:19:00 50° WSW
CZ-2C R/B 3.3 23:18:55 48° SSE 23:20:41 87° ENE 23:26:31 10° NNW
USA 238 DEB 3.7 23:13:35 10° NNW 23:20:47 89° NE 23:23:31 43° SSE
USA 238 3.7 23:13:42 10° NNW 23:20:54 89° NE 23:23:37 43° SSE
TELKOM 3 4.4 23:15:28 10° NW 23:21:16 82° NE 23:21:38 73° E
Okean 3 Rocket 4.4 23:22:26 36° ENE 23:22:26 36° ENE 23:25:56 10° NNE
ATLAS 3B R/B 2.6 23:20:09 10° NNW 23:26:48 75° ENE 23:28:55 45° SE
Helios 1A 4.5 23:26:52 25° WSW 23:27:46 27° W 23:31:22 10° NW
Terra 2.0 23:27:13 53° SSW 23:28:02 63° W 23:32:46 10° NNW
Cosmos 2082 Rocket 3.7 23:23:34 10° N 23:28:14 25° NE 23:30:12 21° E
ATLAS 5 CENTAUR R/B 3.0 23:32:31 26° ENE 23:32:31 26° ENE 23:35:07 10° NE
Mayak 1.0 23:29:52 10° NE 23:31:04 14° ENE 23:31:04 14° ENE
NOSS 3-2 (A) 4.1 23:27:29 10° NNW 23:35:08 74° NE 23:38:29 40° SE
Cosmos 2251 Rocket 3.7 23:33:43 41° SW 23:35:32 71° WNW 23:40:53 10° NNE
Cosmos 1833 Rocket 3.8 23:32:51 10° N 23:37:52 32° ENE 23:39:19 28° E
Cosmos 1302 Rocket 3.9 23:34:11 10° NNW 23:39:30 82° WSW 23:40:10 68° S
Spot 4 3.8 23:43:44 67° E 23:43:59 69° ENE 23:48:50 10° N
ATLAS 2AS CENTAUR R/B 4.2 23:39:29 10° WSW 23:46:49 41° NW 23:54:25 10° NNE
Cosmos 1328 4.3 23:48:01 55° NNE 23:48:01 55° NNE 23:51:10 10° N
CZ-2C R/B 2.9 23:47:52 10° N 23:53:16 66° WNW 23:54:35 49° SW
Cosmos 2221 2.9 23:49:07 10° NNW 23:53:10 58° WNW 23:53:10 58° WNW
Cosmos 1626 3.1 23:56:31 46° NNW 23:56:31 46° NNW 23:59:21 10° N
